Find Kosmos-1013

NORAD ID: 10930 Int'l Des: 1978-056 Owner: GUKOSR Country: SU operational
LEOCIRCULAR

实时位置

正在加载3D地球...

关于 Kosmos-1013

正在加载描述...

即将过境

Passes for default location (London). Set your location on the main map for personalized predictions.

高度历史

Loading altitude history...

两行轨道根数

1 10930U 78056A 26120.16094918 -.00000004 00000-0 83645-4 0 9993
2 10930 74.0271 192.5652 0047543 114.7240 271.1426 12.37818153164225
Epoch: Apr 30, 2026 • Age: 6 hours

当前状态

高度 1487.5 km
速度 7.14 km/s
星下点 55.90°N, 23.9°W
发射日期 Jun 7, 1978
运行时间 47.8 years
类型 other

技术详情

分类 Payload
质量 60.00 kg
干质量 60.00 kg
总质量 60.00 kg
长度 0.80 m
直径 0.80 m
跨度 0.80 m
形状 Poly
制造商 NPOPM
平台类型 Strela-1 11F625
阶段状态 In Orbit
所有者/国家 GUKOSR/SU

Most Searched